Location: Unspecified
(0.0000°N, 0.0000°E)
Time: 04:15:00
(UTC+00:00)

STARLINK-1062 - Pass Details

Date: 23 January 2020
Orbit: 548 x 551 km, 53.0° (Epoch: 02 December)

Event Time Altitude Azimuth Distance (km) Brightness Sun altitude
Exits shadow 04:59:18 12° 228° (SW) 1,670 5.8 -17.0°
Maximum altitude 05:02:57 53° 304° (NW) 665 3.6 -16.2°
Drops below altitude 10° 05:06:54 10° 21° (NNE) 1,784 6.2 -15.2°
Sets 05:09:09 0° 26° (NNE) 2,672 7.2 -14.7°
